GW6472 Weather Reports


time (UTC)temp
C
wind
direction
speed
KPH
gust
KPH
rain 1hr
cm
rain 24hr
cm
rain mn
cm
humidity
%
barometer
mb
20260509000737 15 223 0.0 3.2 0.00 0.00 0.00 59
20260509000227 15 203 0.0 3.2 0.00 0.00 0.00 59
20260508235715 15 226 0.0 3.2 0.00 0.00 0.00 58
20260508235201 15 257 1.6 3.2 0.00 0.00 0.00 57
20260508234700 15 255 0.0 4.8 0.00 0.00 0.00 57
20260508234137 15 219 0.0 4.8 0.00 0.00 0.00 58
20260508233637 15 188 3.2 4.8 0.00 0.00 0.00 58
20260508233140 15 185 3.2 4.8 0.00 0.00 0.00 58
20260508232625 15 300 1.6 4.8 0.00 0.00 0.00 57
20260508232125 15 214 4.8 4.8 0.00 0.00 0.00 56
20260508231625 15 90 1.6 6.4 0.00 0.00 0.00 56
20260508231115 15 233 0.0 6.4 0.00 0.00 0.00 57
20260508230840 16 199 3.2 4.8 0.00 0.00 0.00 55
20260508230113 16 281 1.6 4.8 0.00 0.00 0.00 56
20260508225601 16 53 4.8 4.8 0.00 0.00 0.00 56
20260508225323 16 193 3.2 6.4 0.00 0.00 0.00 54
20260508224601 16 317 1.6 12.9 0.00 0.00 0.00 53
20260508224052 16 12 1.6 12.9 0.00 0.00 0.00 53
20260508223549 17 215 3.2 9.7 0.00 0.00 0.00 52
20260508223049 17 30 1.6 9.7 0.00 0.00 0.00 52
20260508222537 17 116 1.6 11.3 0.00 0.00 0.00 52
20260508222039 17 281 6.4 14.5 0.00 0.00 0.00 51
20260508221537 16 114 1.6 14.5 0.00 0.00 0.00 53
20260508221032 16 0 0.0 6.4 0.00 0.00 0.00 50
20260508221026 16 97 6.4 6.4 0.00 0.00 0.00 52
20260508220248 16 133 1.6 9.7 0.00 0.00 0.00 52
20260508215513 16 136 3.2 9.7 0.00 0.00 0.00 50
20260508215013 16 100 1.6 17.7 0.00 0.00 0.00 51
20260508214732 16 108 4.8 17.7 0.00 0.00 0.00 49
20260508214000 16 112 0.0 9.7 0.00 0.00 0.00 51
20260508213501 16 93 3.2 6.4 0.00 0.00 0.00 51
20260508213003 15 98 1.6 6.4 0.00 0.00 0.00 52
20260508212448 15 117 1.6 11.3 0.00 0.00 0.00 53
20260508211948 15 137 3.2 12.9 0.00 0.00 0.00 54
20260508211448 15 113 4.8 12.9 0.00 0.00 0.00 53
20260508210939 15 119 8.0 16.1 0.00 0.00 0.00 52
20260508210437 15 121 4.8 16.1 0.00 0.00 0.00 53
20260508205936 15 127 4.8 14.5 0.00 0.00 0.00 54
20260508205425 15 123 6.4 14.5 0.00 0.00 0.00 54
20260508205157 15 124 8.0 16.1 0.00 0.00 0.00 53
20260508204425 15 139 4.8 16.1 0.00 0.00 0.00 53
20260508203913 15 103 6.4 16.1 0.00 0.00 0.00 51
20260508203412 15 125 4.8 14.5 0.00 0.00 0.00 49
20260508202916 15 99 3.2 12.9 0.00 0.00 0.00 46
20260508202401 15 112 1.6 12.9 0.00 0.00 0.00 46
20260508201900 16 110 4.8 12.9 0.00 0.00 0.00 47
20260508201629 17 127 1.6 6.4 0.00 0.00 0.00 40
20260508200852 17 293 1.6 6.4 0.00 0.00 0.00 34
20260508200349 17 292 4.8 12.9 0.00 0.00 0.00 33
20260508195848 17 289 3.2 12.9 0.00 0.00 0.00 33
20260508195340 17 294 4.8 12.9 0.00 0.00 0.00 32
20260508195329 18 268 6.4 9.7 0.00 0.00 0.00 31
20260508194337 17 308 4.8 11.3 0.00 0.00 0.00 29
20260508194046 17 54 3.2 14.5 0.00 0.00 0.00 29
20260508193327 17 274 6.4 14.5 0.00 0.00 0.00 30
20260508192824 17 286 1.6 14.5 0.00 0.00 0.00 33
20260508192313 17 265 3.2 12.9 0.00 0.00 0.00 30
20260508191813 17 126 0.0 12.9 0.00 0.00 0.00 31
20260508191315 17 247 8.0 12.9 0.00 0.00 0.00 31
20260508190800 18 311 6.4 12.9 0.00 0.00 0.00 29
20260508190300 18 50 1.6 6.4 0.00 0.00 0.00 30
20260508185800 17 312 3.2 11.3 0.00 0.00 0.00 28
20260508185252 17 265 6.4 11.3 0.00 0.00 0.00 32
20260508184749 17 133 1.6 12.9 0.00 0.00 0.00 33
20260508184249 16 278 0.0 12.9 0.00 0.00 0.00 36
20260508184231 16 318 4.8 12.9 0.00 0.00 0.00 32
20260508183504 16 254 3.2 12.9 0.00 0.00 0.00 34
20260508182737 16 97 6.4 9.7 0.00 0.00 0.00 36
20260508182224 16 99 3.2 9.7 0.00 0.00 0.00 36
20260508181724 17 272 3.2 9.7 0.00 0.00 0.00 35
20260508181227 17 39 3.2 6.4 0.00 0.00 0.00 30
20260508180712 16 19 0.0 11.3 0.00 0.00 0.00 35
20260508180213 17 20 1.6 11.3 0.00 0.00 0.00 31
20260508175713 16 38 3.2 4.8 0.00 0.00 0.00 32
20260508175201 17 322 1.6 4.8 0.00 0.00 0.00 32
20260508174703 16 74 1.6 11.3 0.00 0.00 0.00 36
20260508174201 16 23 1.6 11.3 0.00 0.00 0.00 31
20260508174132 16 329 6.4 20.9 0.00 0.00 0.00 35
20260508173149 16 1 3.2 20.9 0.00 0.00 0.00 36
20260508172652 16 204 3.2 9.7 0.00 0.00 0.00 31
20260508172149 16 275 3.2 4.8 0.00 0.00 0.00 31
20260508171651 16 295 3.2 9.7 0.00 0.00 0.00 31
20260508171148 16 232 3.2 16.1 0.00 0.00 0.00 30
20260508170649 15 341 3.2 16.1 0.00 0.00 0.00 32
20260508170137 16 5 1.6 11.3 0.00 0.00 0.00 34
20260508165637 16 236 3.2 4.8 0.00 0.00 0.00 37
20260508165137 16 204 3.2 12.9 0.00 0.00 0.00 34
20260508164627 14 321 3.2 16.1 0.00 0.00 0.00 36
20260508164125 15 319 1.6 16.1 0.00 0.00 0.00 36
20260508163625 15 298 1.6 14.5 0.00 0.00 0.00 35
20260508163113 15 241 4.8 16.1 0.00 0.00 0.00 36
20260508162613 15 298 3.2 16.1 0.00 0.00 0.00 33
20260508162115 15 256 1.6 14.5 0.00 0.00 0.00 35
20260508161609 15 356 6.4 14.5 0.00 0.00 0.00 34
20260508161101 15 238 3.2 12.9 0.00 0.00 0.00 34
20260508160600 15 88 3.2 12.9 0.00 0.00 0.00 37
20260508160549 15 292 8.0 9.7 0.00 0.00 0.00 40
20260508155549 15 223 1.6 9.7 0.00 0.00 0.00 40
20260508155051 15 11 0.0 12.9 0.00 0.00 0.00 47
20260508154549 14 252 0.0 12.9 0.00 0.00 0.00 43
20260508154049 14 260 3.2 9.7 0.00 0.00 0.00 44
20260508153551 13 281 3.2 9.7 0.00 0.00 0.00 42
20260508153051 14 246 1.6 9.7 0.00 0.00 0.00 42
20260508152543 14 250 3.2 9.7 0.00 0.00 0.00 42
20260508152036 13 206 3.2 9.7 0.00 0.00 0.00 45
20260508151537 13 284 3.2 6.4 0.00 0.00 0.00 41
20260508151031 14 262 1.6 4.8 0.00 0.00 0.00 45
20260508150531 13 102 3.2 9.7 0.00 0.00 0.00 42
20260508150025 13 72 1.6 9.7 0.00 0.00 0.00 47
20260508145518 13 191 1.6 6.4 0.00 0.00 0.00 46
20260508145013 13 170 1.6 4.8 0.00 0.00 0.00 48
20260508144515 14 183 0.0 3.2 0.00 0.00 0.00 45
20260508144006 13 78 0.0 3.2 0.00 0.00 0.00 43
20260508143502 13 150 0.0 3.2 0.00 0.00 0.00 47
20260508143458 12 29 1.6 3.2 0.00 0.00 0.00 47
20260508142455 13 304 1.6 4.8 0.00 0.00 0.00 50
20260508141949 13 124 1.6 4.8 0.00 0.00 0.00 49
20260508141449 12 293 3.2 4.8 0.00 0.00 0.00 52
20260508140945 12 123 1.6 4.8 0.00 0.00 0.00 54
20260508140437 12 89 3.2 6.4 0.00 0.00 0.00 52
20260508135918 12 190 1.6 6.4 0.00 0.00 0.00 55
20260508135413 11 266 3.2 4.8 0.00 0.00 0.00 55
20260508134915 11 260 1.6 4.8 0.00 0.00 0.00 56
20260508134406 11 286 1.6 4.8 0.00 0.00 0.00 57
20260508133900 11 110 0.0 4.8 0.00 0.00 0.00 61
20260508133400 11 111 1.6 4.8 0.00 0.00 0.00 61
20260508132855 11 93 0.0 4.8 0.00 0.00 0.00 64
20260508132351 11 266 0.0 6.4 0.00 0.00 0.00 64
20260508131831 11 116 3.2 4.8 0.00 0.00 0.00 63
20260508131324 10 265 1.6 6.4 0.00 0.00 0.00 62
20260508130827 11 128 4.8 6.4 0.00 0.00 0.00 61
20260508130319 10 120 0.0 3.2 0.00 0.00 0.00 65
20260508130037 10 187 0.0 4.8 0.00 0.00 0.00 62
20260508125254 9 238 3.2 4.8 0.00 0.00 0.00 66
20260508124749 10 93 1.6 4.8 0.00 0.00 0.00 68
20260508124248 10 209 0.0 3.2 0.00 0.00 0.00 64
20260508123743 9 63 1.6 6.4 0.00 0.00 0.00 66
20260508123240 9 92 1.6 6.4 0.00 0.00 0.00 67
20260508122718 10 26 1.6 4.8 0.00 0.00 0.00 70
20260508122212 8 100 3.2 4.8 0.00 0.00 0.00 68
20260508121715 7 142 0.0 1.6 0.00 0.00 0.00 71
20260508121207 7 231 0.0 1.6 0.00 0.00 0.00 74
20260508120700 7 127 1.6 4.8 0.00 0.00 0.00 72
20260508120200 7 144 1.6 4.8 0.00 0.00 0.00 74
20260508115658 7 142 0.0 3.2 0.00 0.00 0.00 73
20260508115359 6 147 0.0 1.6 0.00 0.00 0.00 75
20260508114633 6 198 0.0 1.6 0.00 0.00 0.00 81
20260508114124 5 210 0.0 0.0 0.00 0.00 0.00 88
20260508113625 4 210 0.0 0.0 0.00 0.00 0.00 90
20260508113118 4 210 0.0 0.0 0.00 0.00 0.00 92
20260508112546 3 186 0.0 0.0 0.00 0.00 0.00 92
20260508112037 3 186 0.0 0.0 0.00 0.00 0.00 92
20260508111522 3 186 0.0 0.0 0.00 0.00 0.00 92
20260508111013 3 186 0.0 0.0 0.00 0.00 0.00 92
20260508110454 3 186 0.0 0.0 0.00 0.00 0.00 92
20260508105921 2 186 0.0 0.0 0.00 0.00 0.00 92
20260508105343 2 186 0.0 0.0 0.00 0.00 0.00 92
20260508104824 2 186 0.0 0.0 0.00 0.00 0.00 91
20260508104319 2 186 0.0 0.0 0.00 0.00 0.00 91
20260508103804 2 186 0.0 0.0 0.00 0.00 0.00 91
20260508103254 2 186 0.0 0.0 0.00 0.00 0.00 91
20260508102749 2 186 0.0 0.0 0.00 0.00 0.00 91
20260508102249 3 186 0.0 0.0 0.00 0.00 0.00 91
20260508101743 2 177 0.0 0.0 0.00 0.00 0.00 90
20260508101236 2 177 0.0 0.0 0.00 0.00 0.00 89
20260508100737 2 177 0.0 0.0 0.00 0.00 0.00 89
20260508100231 2 177 0.0 0.0 0.00 0.00 0.00 88
20260508100221 3 177 0.0 0.0 0.00 0.00 0.00 88
20260508095207 3 177 0.0 0.0 0.00 0.00 0.00 88
20260508094649 3 174 0.0 0.0 0.00 0.00 0.00 87
20260508094145 3 174 0.0 0.0 0.00 0.00 0.00 86
20260508093607 3 174 0.0 0.0 0.00 0.00 0.00 86
20260508093101 3 140 0.0 0.0 0.00 0.00 0.00 86
20260508092835 3 151 0.0 0.0 0.00 0.00 0.00 85
20260508092314 3 151 0.0 0.0 0.00 0.00 0.00 84
20260508091549 4 151 0.0 0.0 0.00 0.00 0.00 84
20260508091253 4 151 0.0 1.6 0.00 0.00 0.00 83
20260508090718 4 156 0.0 1.6 0.00 0.00 0.00 82
20260508085949 5 232 0.0 1.6 0.00 0.00 0.00 81
20260508085452 4 94 0.0 1.6 0.00 0.00 0.00 83
20260508084943 5 99 0.0 0.0 0.00 0.00 0.00 82
20260508084915 5 84 0.0 0.0 0.00 0.00 0.00 80
20260508083919 5 85 0.0 0.0 0.00 0.00 0.00 79
20260508083417 5 85 0.0 1.6 0.00 0.00 0.00 79
20260508082913 5 100 0.0 1.6 0.00 0.00 0.00 80
20260508082407 5 165 0.0 0.0 0.00 0.00 0.00 80
20260508082132 5 233 0.0 0.0 0.00 0.00 0.00 80
20260508081404 6 234 0.0 3.2 0.00 0.00 0.00 78
20260508080855 6 221 0.0 3.2 0.00 0.00 0.00 78
20260508080350 5 281 1.6 3.2 0.00 0.00 0.00 78
20260508075849 5 123 0.0 0.0 0.00 0.00 0.00 78
20260508075346 5 250 0.0 1.6 0.00 0.00 0.00 77
20260508074824 5 256 0.0 1.6 0.00 0.00 0.00 76
20260508074540 5 38 0.0 0.0 0.00 0.00 0.00 74
20260508074246 5 38 0.0 0.0 0.00 0.00 0.00 74
20260508073256 6 38 0.0 0.0 0.00 0.00 0.00 74
20260508072752 6 36 0.0 1.6 0.00 0.00 0.00 74
20260508072253 6 40 0.0 1.6 0.00 0.00 0.00 76
20260508071743 6 3 0.0 1.6 0.00 0.00 0.00 75
20260508071237 6 3 0.0 1.6 0.00 0.00 0.00 72
20260508070721 6 357 0.0 1.6 0.00 0.00 0.00 73
20260508070143 6 357 0.0 1.6 0.00 0.00 0.00 73
20260508065640 6 354 0.0 1.6 0.00 0.00 0.00 74
20260508065119 7 355 0.0 4.8 0.00 0.00 0.00 72
20260508064615 7 14 0.0 4.8 0.00 0.00 0.00 72
20260508064114 7 9 0.0 3.2 0.00 0.00 0.00 75
20260508063607 6 13 0.0 3.2 0.00 0.00 0.00 82
20260508063101 6 7 0.0 1.6 0.00 0.00 0.00 87
20260508063032 6 4 0.0 1.6 0.00 0.00 0.00 88
20260508062036 6 0 1.6 1.6 0.00 0.00 0.00 89
20260508061737 6 236 0.0 0.0 0.00 0.00 0.00 90
20260508060524 6 257 0.0 0.0 0.00 0.00 0.00 89
20260508060028 6 257 0.0 0.0 0.00 0.00 0.00 89
20260508055520 6 257 0.0 0.0 0.00 0.00 0.00 89
20260508055224 6 257 0.0 0.0 0.00 0.00 0.00 88
20260508054455 6 257 0.0 0.0 0.00 0.00 0.00 87
20260508054429 6 257 0.0 0.0 0.00 0.00 0.00 86
20260508053433 6 257 0.0 0.0 0.00 0.00 0.00 85
20260508053145 6 257 0.0 0.0 0.00 0.00 0.00 85
20260508052407 6 265 0.0 0.0 0.00 0.00 0.00 84
20260508051901 6 265 0.0 0.0 0.00 0.00 0.00 83
20260508051401 7 266 0.0 1.6 0.00 0.00 0.00 82
20260508050857 7 264 0.0 1.6 0.00 0.00 0.00 81
20260508050349 7 309 0.0 3.2 0.00 0.00 0.00 81
20260508045831 7 274 0.0 6.4 0.00 0.00 0.00 79
20260508045313 7 282 3.2 6.4 0.00 0.00 0.00 78
20260508045032 7 296 3.2 9.7 0.00 0.00 0.00 78
20260508044304 7 195 1.6 14.5 0.00 0.00 0.00 77
20260508044031 7 280 1.6 14.5 0.00 0.00 0.00 75
20260508043255 7 297 1.6 4.8 0.00 0.00 0.00 74
20260508042752 7 243 3.2 4.8 0.00 0.00 0.00 73
20260508042249 8 314 0.0 3.2 0.00 0.00 0.00 71
20260508042009 9 271 3.2 3.2 0.00 0.00 0.00 61
20260508041237 8 164 1.6 1.6 0.00 0.00 0.00 60
20260508040739 8 250 0.0 0.0 0.00 0.00 0.00 57
20260508040231 8 250 0.0 0.0 0.00 0.00 0.00 57
20260508035727 8 250 0.0 0.0 0.00 0.00 0.00 57
20260508035207 8 243 0.0 0.0 0.00 0.00 0.00 56
20260508034703 8 251 0.0 0.0 0.00 0.00 0.00 56
20260508034143 8 251 0.0 0.0 0.00 0.00 0.00 55
20260508033637 8 251 0.0 0.0 0.00 0.00 0.00 56
20260508033119 8 251 0.0 1.6 0.00 0.00 0.00 53
20260508032613 9 251 0.0 1.6 0.00 0.00 0.00 53
20260508032347 9 246 0.0 1.6 0.00 0.00 0.00 52
20260508032053 9 288 0.0 0.0 0.00 0.00 0.00 53
20260508031049 9 289 0.0 0.0 0.00 0.00 0.00 52
20260508031028 9 289 0.0 0.0 0.00 0.00 0.00 51
20260508030039 9 289 0.0 0.0 0.00 0.00 0.00 50
20260508025521 9 300 0.0 1.6 0.00 0.00 0.00 52
20260508025013 10 308 0.0 1.6 0.00 0.00 0.00 53
20260508024512 10 261 0.0 3.2 0.00 0.00 0.00 51
20260508024006 10 288 0.0 3.2 0.00 0.00 0.00 49
20260508023501 10 328 1.6 3.2 0.00 0.00 0.00 47
20260508023001 10 289 1.6 3.2 0.00 0.00 0.00 47
20260508022457 10 306 0.0 4.8 0.00 0.00 0.00 48
20260508021937 10 292 0.0 4.8 0.00 0.00 0.00 47
20260508021431 10 238 3.2 4.8 0.00 0.00 0.00 46
20260508020927 10 312 0.0 3.2 0.00 0.00 0.00 49
20260508020425 10 303 0.0 1.6 0.00 0.00 0.00 48
20260508020143 10 294 0.0 3.2 0.00 0.00 0.00 47
20260508015401 10 289 0.0 3.2 0.00 0.00 0.00 46
20260508014857 10 267 1.6 3.2 0.00 0.00 0.00 46
20260508014349 10 251 0.0 4.8 0.00 0.00 0.00 46
20260508013849 10 278 1.6 4.8 0.00 0.00 0.00 45
20260508013343 10 297 1.6 4.8 0.00 0.00 0.00 46
20260508013103 10 273 0.0 3.2 0.00 0.00 0.00 45
20260508012336 10 158 0.0 4.8 0.00 0.00 0.00 44
20260508011831 11 15 1.6 4.8 0.00 0.00 0.00 44
20260508011325 11 290 3.2 4.8 0.00 0.00 0.00 43
20260508010827 11 108 1.6 3.2 0.00 0.00 0.00 43
20260508010319 11 288 1.6 9.7 0.00 0.00 0.00 42
20260508005812 11 293 3.2 9.7 0.00 0.00 0.00 41
20260508005312 11 347 0.0 9.7 0.00 0.00 0.00 42
20260508005041 11 277 0.0 4.8 0.00 0.00 0.00 42
20260508004527 11 28 0.0 3.2 0.00 0.00 0.00 42
20260508003802 11 294 0.0 3.2 0.00 0.00 0.00 41
20260508003257 11 278 0.0 3.2 0.00 0.00 0.00 42
20260508003233 11 270 0.0 4.8 0.00 0.00 0.00 41
20260508002508 11 285 0.0 9.7 0.00 0.00 0.00 42
20260508001745 11 265 0.0 11.3 0.00 0.00 0.00 41
20260508001459 11 266 0.0 20.9 0.00 0.00 0.00 40